User: anonymous   Login
Location: Dunedin
(45.8670°S, 170.5000°E)
Time: 12:20:27
(UTC+13:00)
Language:

Cosmos 1633 Rocket - Orbit

View from above orbital plane
View from above orbital plane
View from above satellite
View from above satellite

Ground track
Ground track

The orbit data is extracted from the following two-line orbital elements,

1 15593U 85020B   19083.85024854  .00000065  00000-0  48692-5 0  9990
2 15593  82.5408  18.4272 0013147  70.0337 290.2293 14.84349707840143
Epoch (UTC): 24 March 2019 20:24:21
Eccentricity: 0.0013147
inclination: 82.5408°
perigee height: 606 km
apogee height: 625 km
right ascension of ascending node: 18.4272°
argument of perigee: 70.0337°
revolutions per day: 14.84349707
mean anomaly at epoch: 290.2293°
orbit number at epoch: 84014

The dashed part of the orbit path shows where the satellite is in the earth's shadow,  

DLR